Location: Huntsville
(41.2590°N, 111.7678°W)
Time: 18:08:05
(UTC+00:00)

BlueWalker 3 - Pass Details

Date: 05 December 2022
Orbit: 499 x 517 km, 53.2° (Epoch: 28 January)

Event Time Altitude Azimuth Distance (km) Brightness Sun altitude
Rises 02:29:49 0° 312° (NW) 2,625 6.1 -27.8°
Reaches altitude 10° 02:32:15 10° 324° (NW) 1,732 5.0 -28.3°
Enters shadow 02:32:42 13° 328° (NNW) 1,576 4.7 -28.3°
